Wind_Speed
17 19 21 21 19 18 17 16 16 14 14 15 16 17 17 15 15 14 14 15 15 16 17 17 18 19 21 22 23 24 25 26 26 26 26 26 27 28 28 29 29 30 31 32 33 34 33 33 33 35 36 38 40 41 40 39 39 38 37 37 37 37 37
17 17 19 18 18 17 16 15 15 13 13 14 15 16 16 15 14 14 15 16 16 16 17 17 18 20 22 23 24 25 26 26 27 27 28 29 30 31 31 32 32 33 35 36 37 38 38 38 37 36 36 36 38 40 39 39 38 38 37 37 37 37 37
17 15 15 17 17 16 15 15 14 12 11 12 14 14 14 14 14 15 16 16 16 16 17 18 19 21 23 24 25 25 26 26 27 28 30 31 31 32 32 33 35 36 38 39 40 41 42 42 42 41 39 38 38 38 38 38 38 38 37 37 37 38 39
16 16 17 18 18 16 14 14 12 11 11 13 13 14 14 14 15 15 15 15 16 16 17 19 21 23 24 24 25 25 26 27 28 30 31 31 31 32 33 34 36 38 39 40 41 42 42 43 43 42 41 41 40 40 39 39 39 39 38 38 38 39 40
16 16 18 19 17 15 14 11 10 11 12 13 13 13 14 14 15 15 15 15 16 17 19 21 22 24 24 24 25 26 27 28 30 31 31 31 31 32 34 36 38 39 40 41 42 42 42 42 42 42 41 41 41 41 41 41 40 40 40 39 39 40 41
17 17 17 18 16 14 11 10 10 11 12 13 14 14 14 14 14 15 15 16 17 18 20 22 23 23 24 25 26 27 29 30 31 31 31 31 33 35 36 38 40 41 42 43 43 43 44 43 43 43 42 42 42 43 43 42 42 42 43 42 42 43 43
18 17 17 17 14 11 10 10 11 11 12 13 14 14 14 14 14 15 15 16 18 19 21 22 22 23 25 26 27 29 30 31 31 31 32 33 35 37 38 40 41 42 43 44 44 44 44 44 43 42 42 42 43 44 45 45 45 45 46 46 46 46 46
17 17 16 14 12 10 10 10 10 11 12 13 14 14 14 14 15 15 16 17 18 19 20 21 22 24 26 27 29 30 31 31 31 32 34 35 37 39 40 41 42 43 44 44 44 44 43 42 41 41 40 41 43 44 46 47 47 47 47 48 49 48 48
17 16 15 13 12 11 11 11 11 11 12 13 14 14 14 15 16 16 17 18 18 19 20 21 23 25 27 29 30 31 32 32 33 34 35 37 38 40 41 42 43 44 44 43 42 42 41 40 40 41 42 42 43 44 46 47 47 48 48 48 49 50 50
16 16 14 13 12 12 12 11 11 12 13 14 14 14 15 15 15 16 17 17 18 19 21 23 25 27 28 30 31 32 32 33 34 35 37 38 39 41 42 42 43 42 42 41 40 40 40 41 42 43 44 45 45 45 45 47 48 48 49 50 50 51 52
15 15 14 13 13 12 12 12 12 13 14 14 14 14 15 15 15 16 16 17 18 20 22 24 26 28 29 31 32 33 33 34 35 37 38 39 40 41 41 41 41 40 39 38 39 40 41 42 44 45 46 46 46 46 46 48 50 50 51 52 53 54 54
15 15 14 14 13 13 12 13 13 14 15 14 14 14 15 15 15 16 16 17 19 21 23 25 27 29 30 32 33 33 34 35 37 38 39 39 40 40 40 39 38 37 37 38 39 41 43 44 45 46 47 47 47 48 48 50 52 54 53 54 55 56 56
16 15 14 13 13 12 13 13 14 15 15 14 14 14 15 15 15 16 17 19 21 23 24 26 28 30 32 33 34 34 35 36 37 38 39 39 39 39 38 37 36 36 38 39 41 43 44 46 47 47 47 48 48 49 51 52 53 55 56 56 56 57 57
16 15 14 13 13 13 14 15 15 15 14 14 14 14 15 15 15 17 19 21 22 24 26 28 30 32 33 34 35 35 36 37 37 38 38 38 38 37 36 35 36 37 39 42 43 44 46 47 48 48 48 49 50 51 53 54 54 55 55 55 55 55 55
16 15 14 14 14 15 15 16 15 15 14 14 14 14 14 15 17 19 20 22 24 26 28 30 32 33 34 34 35 36 36 37 38 38 37 37 37 36 35 35 37 39 42 44 45 46 47 48 48 49 50 51 53 54 55 55 56 55 54 53 52 51 51
17 16 16 15 16 16 17 16 16 15 14 14 14 15 15 17 19 20 22 24 26 28 30 32 33 34 35 35 36 37 37 37 37 37 37 36 36 35 35 36 39 41 44 45 46 47 48 48 49 50 52 53 54 55 56 56 55 54 52 50 50 49 49
18 18 17 17 18 18 18 17 16 15 15 15 15 16 17 19 20 22 24 26 28 30 32 33 34 35 36 36 37 37 37 37 37 36 36 36 35 35 36 38 41 43 45 46 47 48 48 49 50 52 53 54 55 55 54 53 52 51 49 48 48 49 50
19 19 19 19 20 20 19 19 18 17 17 17 17 18 19 21 22 23 26 28 30 32 33 34 36 36 37 37 37 37 37 37 37 36 35 35 35 36 38 40 42 44 46 47 48 48 49 50 52 53 53 54 53 52 51 49 48 48 48 47 48 49 50
21 21 21 21 21 21 21 21 20 19 19 19 19 20 21 22 24 25 27 30 32 33 34 35 37 37 37 37 37 37 37 37 36 35 35 35 36 38 39 41 44 45 46 47 48 48 50 51 52 53 53 52 50 49 47 46 46 46 47 48 48 48 48
22 22 22 22 22 23 23 23 22 21 21 21 21 22 23 24 25 27 29 32 33 34 35 36 38 38 38 37 37 37 37 35 34 34 34 35 37 39 40 42 44 46 46 47 48 49 50 51 52 52 51 49 48 46 45 45 46 47 47 47 47 47 46
24 24 24 24 24 24 24 24 23 22 22 23 23 24 24 25 27 28 31 33 34 35 36 37 38 38 37 37 37 37 35 34 33 33 34 35 37 39 41 43 45 45 46 47 48 49 50 51 51 50 48 47 46 45 45 45 45 46 46 46 46 46 46
26 26 26 26 26 25 25 24 24 23 24 24 25 25 26 26 28 30 32 34 35 36 37 38 38 37 37 37 36 35 34 32 32 33 35 36 38 40 42 44 45 45 46 47 49 50 51 51 50 48 46 45 44 44 45 45 44 45 45 46 46 46 46
27 28 28 28 27 26 26 25 24 24 24 25 26 26 27 28 29 31 33 35 36 36 37 38 37 37 37 36 35 33 32 32 32 33 35 37 38 41 42 43 44 45 47 48 49 50 51 50 48 47 45 44 44 44 43 43 43 44 45 46 46 46 47
28 29 29 29 29 29 28 26 24 24 24 25 26 27 27 29 30 32 34 35 36 36 37 37 36 36 36 35 33 32 31 31 32 34 35 37 39 41 42 43 44 46 47 48 49 49 49 48 46 45 44 44 44 43 42 42 43 44 45 47 47 47 48
28 29 30 30 30 30 29 28 28 27 26 26 27 27 29 30 32 33 35 35 35 36 36 36 36 36 35 33 32 31 31 31 32 34 36 37 39 41 42 43 44 45 46 47 48 48 46 45 43 43 43 43 42 41 41 42 43 44 46 47 48 48 49
29 30 31 31 32 32 32 32 32 29 26 26 28 28 30 31 33 34 34 34 34 35 35 35 35 34 33 32 31 30 30 31 32 34 36 37 39 40 41 42 44 45 46 46 46 45 43 42 42 42 41 40 39 40 41 42 43 44 46 47 48 49 50
30 31 31 33 34 34 33 31 29 27 26 27 29 30 32 33 33 33 33 33 34 34 34 34 33 33 32 31 30 30 30 31 32 34 36 38 39 40 41 42 43 44 45 44 43 42 41 40 40 39 38 37 37 39 40 41 42 44 45 46 48 49 51
33 34 34 34 33 34 36 35 32 30 30 30 30 31 32 32 32 31 31 32 33 33 33 33 32 32 31 30 30 30 30 31 32 34 36 37 38 39 40 41 43 43 43 42 41 39 39 39 38 36 35 35 37 38 39 40 41 43 44 46 47 49 51
33 33 32 32 32 32 34 36 34 31 29 28 28 29 29 29 30 30 31 32 32 32 32 32 31 31 30 30 29 29 29 30 32 34 36 37 38 39 40 41 42 42 41 40 38 37 37 36 34 33 34 35 37 38 39 40 41 42 44 45 47 48 51
30 30 31 33 33 30 29 29 28 27 26 25 26 27 27 28 30 30 31 31 31 31 31 31 30 30 29 29 29 29 29 30 32 34 35 37 37 38 40 41 41 40 39 37 36 36 35 33 31 32 33 34 35 36 38 39 40 42 43 45 46 48 49
30 30 30 31 30 28 28 29 29 27 27 27 27 27 28 29 30 30 30 30 31 31 30 30 29 29 29 29 28 28 29 30 32 34 35 36 37 38 39 39 39 38 37 35 34 34 32 30 30 31 32 33 34 35 36 37 38 40 42 44 46 47 48
30 31 30 29 29 28 27 27 26 26 26 26 26 27 28 29 29 29 29 30 30 30 30 29 28 28 28 28 28 28 28 30 32 34 35 36 37 38 38 37 37 36 35 33 33 31 29 27 29 30 31 32 33 33 34 35 36 39 41 43 45 46 48
31 32 31 31 30 29 27 25 24 24 25 26 27 28 29 29 29 28 29 30 30 30 29 28 28 28 28 28 27 27 28 30 32 33 34 35 36 36 36 36 35 35 33 32 31 29 26 26 28 29 30 30 31 32 33 34 36 39 41 43 45 46 48
32 33 33 32 29 27 25 23 23 24 25 27 28 28 28 28 28 28 29 30 30 29 28 28 28 27 27 27 27 27 28 30 32 33 34 34 35 35 35 34 34 33 31 30 28 26 25 26 27 28 28 29 30 31 33 34 36 39 41 43 45 46 48
32 31 30 27 24 22 23 23 23 24 26 26 27 27 27 28 27 28 29 30 30 29 28 28 27 27 27 26 26 27 28 30 31 33 33 33 34 34 33 33 32 31 30 28 26 24 24 25 26 27 27 28 29 30 32 34 36 38 41 43 44 46 47
34 34 31 27 25 26 27 25 24 25 26 26 26 27 27 27 27 28 29 30 29 29 28 28 27 27 26 26 26 27 28 30 31 32 32 33 33 33 32 31 30 29 28 26 23 22 23 24 25 25 26 27 28 29 31 33 36 38 40 42 44 45 47
36 35 33 31 31 32 31 28 26 26 26 27 27 27 27 27 28 28 29 30 29 29 28 28 27 27 26 26 26 27 29 30 31 32 32 32 32 31 30 30 28 27 26 24 22 21 22 23 23 24 25 26 26 28 30 32 35 37 39 41 43 45 47
Wind_Direction
224 227 235 242 241 233 230 231 228 226 225 224 225 229 236 242 245 252 257 259 263 266 271 278 283 287 290 292 294 296 297 297 297 299 299 300 300 300 301 303 304 306 308 309 310 310 309 305 302 303 304 304 306 309 308 307 305 303 302 301 298 296 293
235 238 242 242 233 223 226 229 222 216 215 217 223 230 236 241 248 253 256 258 263 268 275 281 286 289 291 293 294 295 295 296 298 301 302 304 305 307 309 311 313 314 316 316 316 315 315 313 310 308 307 305 306 309 310 308 306 305 303 302 299 297 295
237 239 239 233 225 219 222 220 210 207 213 220 226 231 236 242 248 252 255 260 266 273 280 285 288 290 291 292 292 293 295 298 300 302 303 305 306 309 312 315 317 319 319 319 318 317 317 316 315 314 313 311 309 309 310 308 306 305 304 302 301 299 296
234 235 230 226 222 214 209 206 203 213 226 230 232 235 239 243 249 255 261 268 274 281 286 289 291 290 290 291 292 294 297 300 302 303 304 305 308 311 315 318 320 320 319 318 318 317 317 316 316 315 314 313 310 309 309 308 306 305 304 302 300 298 297
232 236 227 221 215 202 195 198 209 224 231 234 236 237 241 246 253 259 267 274 280 286 289 290 290 290 290 292 295 298 301 303 304 304 305 308 311 315 319 320 320 319 318 318 317 316 316 315 315 314 313 311 310 309 309 308 308 306 305 304 302 300 299
233 235 218 205 198 194 198 207 215 223 229 234 237 240 245 250 257 264 272 278 284 287 288 288 289 290 292 295 299 303 305 306 306 306 309 313 317 319 321 321 320 319 318 317 317 316 315 315 314 314 313 312 312 311 311 310 310 309 308 307 305 303 301
230 224 205 196 196 204 211 211 213 221 229 236 240 245 251 256 262 269 275 280 284 286 286 288 290 293 297 301 304 307 307 307 308 310 314 317 319 321 321 320 319 319 318 317 316 316 315 315 315 314 314 314 313 313 312 312 312 311 310 309 307 305 304
222 214 207 208 210 212 212 211 216 223 231 240 246 252 257 262 268 274 278 282 284 284 286 290 295 299 302 305 308 308 309 309 311 313 316 318 320 320 320 319 319 318 317 316 316 316 316 315 315 314 314 313 314 314 313 313 312 311 310 309 308 307 305
223 223 223 219 211 208 211 214 220 228 237 244 250 256 262 267 273 278 281 282 283 286 290 296 300 303 306 307 309 309 310 311 313 315 317 318 319 319 319 319 318 317 316 316 316 316 316 315 315 315 314 314 314 314 313 312 312 311 310 309 308 307 306
230 229 224 215 208 210 213 216 224 234 242 248 254 261 266 272 277 279 280 281 286 292 297 301 304 306 307 308 309 311 312 313 314 316 317 318 318 318 318 318 317 316 316 316 316 316 317 317 317 317 316 316 315 314 313 312 311 311 310 309 308 306 305
227 221 216 212 211 212 215 222 231 240 247 253 259 265 270 274 275 277 280 287 294 298 301 304 306 307 308 309 311 312 313 314 315 316 316 317 318 318 317 316 316 316 316 317 317 318 319 319 319 318 317 316 315 314 313 312 311 310 309 309 308 306 305
219 216 214 213 213 215 222 231 239 247 253 258 263 268 270 272 274 280 288 294 298 301 303 305 306 308 310 312 313 314 314 314 314 315 316 317 317 317 317 316 316 316 317 319 320 321 321 320 319 318 317 316 315 314 314 313 312 311 309 308 307 306 305
217 216 214 216 220 226 233 240 246 252 257 261 265 267 269 273 280 288 294 298 300 303 305 307 310 312 313 314 314 314 313 314 315 316 317 317 317 317 316 316 316 318 320 321 321 321 320 320 319 318 317 316 316 315 314 313 313 312 310 309 308 306 305
215 215 218 223 230 236 242 246 250 255 259 263 265 267 272 280 288 294 297 300 303 306 309 311 313 314 315 314 313 313 313 314 316 317 317 317 317 316 316 316 318 321 322 322 322 321 320 320 319 318 317 317 316 316 315 314 313 313 312 310 309 307 306
215 219 224 228 234 240 245 249 253 257 261 263 266 271 278 286 291 296 301 305 307 309 312 313 314 314 314 313 313 313 314 316 317 317 318 318 317 316 316 317 320 322 322 322 321 321 320 320 319 319 318 318 317 317 316 315 314 314 312 311 310 309 307
219 224 228 232 237 243 248 252 255 258 261 265 270 276 282 287 293 299 305 308 309 311 311 312 313 314 314 314 314 315 316 317 317 318 318 318 317 316 317 318 320 321 322 322 321 321 320 320 320 320 319 319 319 319 318 317 316 315 314 313 312 311 309
225 229 233 236 241 247 251 254 256 259 263 268 274 278 282 288 296 302 306 307 309 310 310 311 313 315 315 315 315 316 317 317 318 318 319 318 317 317 317 318 319 321 322 322 321 321 321 321 321 321 321 321 321 320 320 319 318 318 317 316 314 313 312
231 234 237 240 246 251 254 256 257 261 266 271 276 280 284 291 297 301 304 306 308 309 310 312 314 315 315 315 316 317 317 317 318 318 318 318 318 318 318 318 320 321 322 322 321 321 322 322 323 323 323 323 323 322 322 321 321 320 319 317 316 315 314
236 238 241 246 251 255 256 257 260 264 269 274 277 281 286 291 295 299 303 305 307 308 310 313 315 316 315 316 316 316 316 317 318 318 318 319 319 319 319 320 321 322 322 322 322 322 323 324 324 325 325 325 324 324 324 323 322 321 320 320 319 319 318
240 243 248 253 256 257 258 259 262 267 271 275 278 282 286 290 294 298 301 304 306 308 311 313 315 315 315 315 315 315 316 317 317 318 319 319 319 319 320 321 322 322 322 322 323 324 325 326 326 326 326 326 326 325 325 324 323 323 323 324 324 324 323
245 248 253 256 258 260 262 263 265 269 273 276 279 281 285 288 292 296 300 303 306 309 311 313 314 314 314 314 314 314 315 316 317 318 318 319 319 320 322 323 322 323 323 324 325 326 327 328 328 328 328 328 327 326 326 326 326 327 328 329 329 329 328
249 252 256 259 262 265 266 265 266 269 273 276 278 280 283 286 290 295 299 302 305 308 310 312 312 312 313 314 314 314 315 316 317 317 318 319 320 322 323 323 323 324 324 326 327 328 328 329 329 329 329 329 328 328 329 329 330 332 334 334 334 333 332
252 255 259 262 265 267 267 266 266 269 271 274 276 279 282 285 289 294 298 301 304 307 309 310 311 312 313 313 313 314 315 316 317 317 318 320 322 323 324 324 324 325 326 328 329 330 330 330 330 331 330 330 330 331 332 334 336 338 339 339 338 337 337
257 259 261 264 267 268 269 268 267 268 270 273 275 278 281 284 288 292 296 299 302 305 308 310 311 311 311 312 313 314 315 315 316 317 319 322 324 325 325 325 326 327 329 330 331 331 332 332 332 332 332 332 333 335 337 339 342 343 343 343 342 341 341
262 264 266 268 270 271 270 269 267 265 267 272 275 278 281 283 287 290 294 297 301 305 308 309 310 310 311 312 313 314 314 314 315 318 321 324 325 326 326 326 328 329 331 332 333 333 333 333 333 333 334 336 338 340 342 344 346 346 346 347 347 345 345
266 268 269 271 272 271 271 270 265 260 264 272 276 278 280 282 285 289 292 297 301 306 308 308 308 310 311 312 313 312 313 313 316 320 323 325 326 326 327 328 330 332 333 334 335 335 335 334 334 335 338 340 342 344 347 348 348 348 348 349 350 349 350
265 267 268 270 270 269 270 271 266 264 269 275 276 277 279 281 284 288 292 298 303 305 306 306 308 310 312 312 311 311 311 313 317 322 325 327 327 327 328 330 332 333 335 336 336 336 335 335 336 339 341 343 345 348 350 350 349 349 350 351 352 354 355
265 266 269 271 273 273 270 264 261 265 271 274 275 275 277 280 284 288 294 299 303 304 304 306 309 311 311 310 309 309 310 314 319 324 327 327 327 327 330 331 333 335 337 338 337 336 336 337 339 342 344 346 349 350 351 351 351 351 352 353 355 357 358
265 268 272 275 279 281 270 257 254 261 266 270 273 275 278 282 286 290 296 300 302 303 305 308 309 310 309 308 307 308 310 316 322 326 327 327 327 329 331 333 335 337 339 338 337 336 338 340 342 345 347 349 351 352 352 353 354 354 355 356 358 359 0
266 271 276 276 277 278 270 261 265 272 273 274 278 279 282 285 287 292 297 300 303 304 306 308 308 307 307 307 306 307 312 318 324 326 326 326 328 330 332 334 336 339 339 338 337 338 341 343 345 347 349 352 353 353 354 355 356 357 358 360 1 2 3
269 274 279 279 276 275 273 273 278 280 279 279 280 280 282 285 289 294 298 302 304 306 307 307 306 306 306 306 306 308 314 320 324 326 325 326 329 332 333 335 337 339 339 339 339 341 343 345 347 349 351 353 353 355 357 358 358 360 2 4 5 5 5
273 276 279 281 279 277 278 279 279 279 279 279 278 279 283 286 290 296 300 303 306 307 306 306 305 305 305 305 306 310 316 321 324 324 325 327 330 333 334 335 338 339 340 340 341 343 345 347 349 350 352 353 354 356 358 359 360 2 5 7 7 7 7
274 276 278 279 276 274 275 278 279 280 279 278 278 281 284 287 292 298 302 305 306 306 306 305 304 304 304 305 308 312 317 321 323 323 325 328 331 333 333 335 338 340 341 341 342 344 345 347 349 351 352 354 355 357 358 0 3 5 7 8 9 9 8
273 274 277 275 269 267 271 277 281 281 278 278 279 281 284 288 293 299 303 305 306 306 305 304 303 303 303 306 309 313 318 321 321 322 326 329 331 332 333 336 339 341 341 342 343 344 345 347 350 351 352 354 356 357 359 2 5 7 8 9 9 9 9
272 275 277 270 259 262 274 280 281 280 278 278 279 281 284 289 294 300 304 306 306 306 305 304 302 301 303 306 310 313 317 319 320 322 326 329 330 331 333 337 340 341 341 342 343 344 345 347 349 351 353 354 356 359 1 4 6 7 7 8 8 8 8
272 275 275 269 265 274 283 284 282 280 279 278 279 281 284 289 294 300 304 306 306 305 305 304 302 301 303 306 310 313 316 317 318 321 326 328 329 331 334 337 339 340 340 341 342 343 344 346 349 351 353 355 357 359 1 3 5 5 5 5 5 5 5
272 272 272 271 273 279 284 284 283 281 279 278 278 279 283 289 294 299 303 305 305 305 305 304 303 302 303 305 309 312 314 315 317 321 325 327 328 330 333 337 338 338 339 339 340 341 342 345 348 350 352 354 356 359 360 1 1 1 1 1 1 1 2
Height
5806 5806 5806 5806 5807 5807 5808 5809 5809 5810 5811 5811 5812 5813 5814 5815 5816 5817 5817 5818 5819 5819 5820 5820 5820 5820 5820 5819 5817 5816 5815 5814 5812 5811 5810 5809 5808 5807 5806 5804 5802 5800 5798 5796 5794 5792 5790 5788 5784 5781 5778 5774 5772 5771 5769 5766 5764 5762 5760 5758 5756 5753 5751
5804 5803 5804 5804 5805 5805 5806 5807 5808 5809 5809 5810 5811 5811 5812 5813 5814 5815 5816 5817 5818 5818 5818 5819 5818 5818 5817 5816 5815 5814 5812 5811 5810 5808 5807 5806 5805 5803 5801 5799 5797 5795 5793 5791 5789 5787 5785 5783 5780 5777 5774 5770 5767 5766 5765 5762 5760 5757 5756 5754 5751 5749 5746
5802 5802 5802 5802 5803 5804 5805 5806 5807 5808 5809 5809 5810 5810 5811 5812 5813 5814 5815 5816 5816 5817 5817 5816 5816 5815 5815 5814 5813 5812 5810 5809 5808 5806 5805 5803 5801 5799 5797 5794 5792 5790 5788 5786 5784 5782 5779 5777 5775 5772 5769 5766 5763 5760 5759 5758 5755 5753 5751 5749 5746 5744 5741
5800 5800 5800 5800 5801 5802 5803 5805 5806 5807 5808 5808 5809 5810 5810 5811 5812 5813 5814 5814 5815 5815 5814 5814 5813 5813 5812 5811 5810 5809 5808 5807 5805 5804 5803 5801 5798 5796 5793 5791 5789 5786 5784 5782 5780 5777 5775 5772 5770 5767 5764 5761 5759 5756 5754 5752 5750 5748 5746 5744 5742 5739 5736
5798 5798 5798 5799 5800 5801 5803 5804 5805 5806 5807 5807 5808 5809 5809 5810 5811 5812 5812 5813 5813 5812 5812 5811 5811 5810 5810 5809 5808 5807 5805 5804 5803 5801 5799 5797 5795 5792 5790 5788 5785 5783 5781 5779 5776 5774 5771 5769 5766 5763 5761 5758 5754 5752 5750 5748 5745 5742 5740 5738 5736 5734 5731
5796 5796 5797 5798 5799 5801 5802 5803 5804 5805 5806 5806 5807 5808 5809 5810 5810 5811 5811 5811 5810 5810 5809 5809 5808 5808 5807 5806 5805 5804 5802 5801 5800 5798 5796 5793 5791 5788 5786 5784 5782 5779 5777 5774 5772 5770 5767 5765 5762 5759 5756 5753 5750 5746 5744 5742 5739 5736 5734 5732 5730 5728 5725
5795 5795 5796 5797 5799 5800 5801 5802 5802 5803 5804 5805 5806 5807 5808 5808 5809 5809 5809 5808 5808 5808 5807 5807 5806 5805 5804 5803 5802 5801 5799 5798 5796 5794 5792 5789 5787 5785 5782 5780 5777 5775 5773 5770 5768 5765 5763 5760 5758 5755 5752 5748 5745 5741 5738 5736 5734 5731 5728 5725 5723 5721 5719
5794 5795 5796 5797 5798 5799 5799 5800 5801 5802 5803 5804 5805 5805 5806 5807 5807 5807 5806 5806 5806 5805 5805 5804 5803 5803 5801 5800 5799 5798 5796 5795 5793 5790 5788 5785 5783 5781 5778 5776 5773 5771 5769 5766 5764 5761 5759 5756 5754 5751 5749 5745 5742 5737 5733 5730 5728 5726 5723 5720 5716 5714 5713
5794 5794 5795 5796 5797 5798 5798 5799 5799 5800 5801 5802 5803 5804 5804 5805 5805 5804 5804 5804 5803 5803 5802 5801 5801 5800 5799 5797 5796 5795 5793 5791 5789 5787 5784 5782 5779 5777 5774 5772 5769 5767 5765 5762 5759 5757 5754 5752 5749 5747 5744 5742 5739 5735 5730 5726 5724 5721 5718 5716 5712 5708 5706
5792 5793 5794 5795 5796 5796 5797 5797 5798 5799 5800 5801 5802 5802 5803 5803 5802 5802 5802 5801 5801 5800 5800 5799 5798 5797 5796 5795 5793 5791 5789 5788 5785 5783 5781 5778 5776 5773 5771 5768 5766 5763 5760 5758 5755 5753 5750 5747 5745 5742 5739 5736 5734 5731 5728 5723 5720 5717 5713 5710 5708 5704 5700
5791 5792 5793 5794 5795 5795 5796 5796 5797 5797 5798 5799 5800 5801 5801 5800 5800 5800 5800 5799 5798 5798 5797 5796 5795 5794 5793 5792 5790 5788 5786 5784 5782 5780 5777 5775 5772 5769 5767 5765 5762 5759 5757 5754 5751 5748 5746 5743 5740 5737 5734 5732 5728 5726 5723 5719 5714 5712 5710 5705 5701 5698 5694
5790 5791 5792 5793 5793 5794 5794 5795 5795 5796 5797 5798 5799 5799 5799 5798 5798 5798 5797 5797 5796 5795 5795 5794 5793 5792 5790 5788 5786 5784 5782 5781 5778 5776 5774 5771 5768 5766 5763 5761 5758 5755 5753 5750 5747 5744 5741 5739 5736 5733 5730 5727 5724 5720 5718 5715 5709 5705 5703 5701 5695 5691 5688
5789 5790 5791 5791 5792 5792 5793 5793 5794 5795 5795 5796 5796 5796 5796 5796 5796 5796 5795 5794 5794 5793 5792 5791 5790 5788 5787 5785 5783 5781 5779 5777 5775 5772 5770 5767 5765 5762 5760 5757 5754 5752 5749 5746 5743 5741 5738 5735 5731 5728 5725 5722 5719 5716 5712 5709 5705 5699 5695 5693 5690 5685 5681
5788 5789 5790 5790 5791 5791 5791 5792 5792 5793 5793 5794 5794 5794 5794 5794 5794 5793 5793 5792 5791 5790 5789 5788 5786 5785 5783 5782 5780 5778 5776 5774 5771 5769 5766 5764 5761 5759 5756 5753 5750 5748 5745 5743 5740 5737 5734 5731 5727 5724 5720 5717 5713 5711 5707 5703 5700 5695 5689 5685 5682 5678 5673
5787 5787 5788 5789 5789 5789 5789 5790 5790 5791 5791 5792 5792 5792 5792 5792 5791 5791 5790 5789 5788 5787 5786 5784 5783 5782 5780 5779 5777 5775 5773 5770 5768 5765 5763 5760 5758 5755 5752 5750 5747 5744 5742 5739 5736 5733 5730 5726 5723 5719 5715 5712 5708 5704 5701 5697 5694 5690 5685 5679 5675 5672 5667
5785 5786 5786 5787 5787 5787 5787 5788 5788 5789 5789 5790 5790 5790 5789 5789 5789 5788 5787 5786 5785 5784 5783 5782 5780 5779 5777 5775 5773 5771 5769 5767 5764 5762 5759 5757 5754 5751 5749 5746 5744 5741 5738 5735 5732 5729 5725 5722 5718 5715 5711 5707 5703 5698 5694 5690 5687 5683 5679 5674 5669 5665 5661
5783 5784 5785 5785 5785 5785 5786 5786 5786 5787 5787 5787 5787 5787 5787 5787 5786 5785 5785 5783 5782 5781 5780 5779 5777 5776 5774 5772 5770 5768 5765 5763 5761 5758 5755 5753 5750 5748 5745 5743 5740 5738 5735 5731 5728 5724 5721 5717 5713 5710 5706 5701 5697 5693 5688 5684 5680 5676 5673 5669 5664 5659 5655
5782 5782 5783 5783 5783 5783 5784 5784 5785 5785 5785 5785 5785 5785 5784 5784 5783 5783 5782 5781 5780 5779 5777 5776 5774 5772 5770 5768 5766 5764 5762 5759 5757 5754 5752 5749 5747 5744 5742 5739 5737 5734 5731 5727 5724 5720 5717 5713 5709 5705 5701 5697 5692 5688 5683 5679 5675 5671 5667 5663 5659 5654 5649
5780 5781 5781 5781 5781 5781 5781 5782 5782 5783 5782 5782 5782 5782 5781 5781 5781 5780 5779 5778 5777 5776 5774 5773 5771 5769 5767 5765 5763 5761 5759 5756 5754 5751 5748 5746 5743 5741 5739 5736 5733 5730 5727 5724 5720 5716 5713 5709 5705 5701 5696 5692 5688 5683 5679 5675 5671 5667 5662 5658 5654 5649 5643
5778 5779 5779 5779 5779 5779 5779 5779 5780 5780 5780 5780 5779 5779 5779 5778 5778 5777 5776 5775 5774 5773 5771 5770 5768 5766 5764 5762 5760 5758 5755 5753 5750 5748 5745 5743 5740 5738 5735 5732 5729 5726 5723 5720 5716 5712 5708 5704 5701 5697 5692 5688 5684 5680 5676 5672 5667 5662 5658 5653 5649 5644 5638
5776 5776 5776 5776 5776 5776 5777 5777 5777 5777 5777 5777 5776 5776 5776 5775 5775 5774 5773 5772 5771 5770 5768 5767 5765 5763 5761 5759 5757 5754 5752 5749 5747 5744 5742 5740 5737 5735 5732 5729 5726 5723 5719 5716 5712 5708 5705 5701 5696 5692 5688 5684 5680 5676 5672 5668 5663 5658 5653 5649 5644 5638 5633
5773 5773 5773 5773 5773 5774 5774 5774 5774 5774 5774 5774 5773 5773 5773 5772 5772 5771 5770 5769 5768 5767 5765 5764 5762 5760 5758 5756 5754 5751 5749 5746 5744 5741 5739 5737 5734 5732 5729 5725 5722 5719 5716 5712 5708 5704 5701 5697 5693 5689 5684 5681 5677 5673 5668 5664 5659 5655 5649 5644 5639 5634 5629
5770 5770 5770 5770 5770 5770 5771 5771 5771 5771 5771 5771 5770 5770 5770 5769 5769 5768 5767 5766 5765 5764 5762 5761 5759 5757 5755 5753 5750 5748 5745 5743 5741 5738 5736 5734 5731 5728 5725 5722 5719 5715 5712 5708 5704 5700 5696 5692 5688 5684 5681 5677 5673 5670 5665 5660 5655 5651 5646 5640 5635 5630 5625
5767 5767 5767 5767 5767 5767 5767 5768 5768 5768 5767 5767 5767 5767 5767 5766 5766 5765 5764 5763 5762 5761 5759 5758 5756 5754 5752 5750 5747 5744 5742 5740 5738 5736 5733 5731 5728 5725 5722 5718 5715 5711 5708 5704 5700 5696 5692 5688 5684 5680 5676 5672 5669 5665 5661 5657 5652 5647 5642 5637 5631 5626 5621
5765 5765 5765 5765 5765 5764 5764 5765 5764 5764 5764 5764 5764 5764 5763 5763 5763 5762 5761 5761 5759 5758 5756 5754 5753 5751 5749 5746 5744 5741 5739 5737 5735 5733 5731 5728 5725 5722 5719 5715 5712 5708 5704 5701 5697 5692 5688 5684 5681 5677 5673 5669 5665 5661 5657 5653 5649 5645 5640 5634 5629 5623 5618
5762 5762 5762 5762 5762 5761 5761 5761 5760 5759 5760 5760 5760 5761 5760 5760 5760 5759 5758 5757 5756 5754 5753 5751 5749 5747 5745 5743 5741 5738 5736 5735 5733 5730 5728 5725 5722 5719 5716 5712 5708 5705 5701 5697 5693 5689 5685 5681 5678 5674 5670 5666 5662 5658 5654 5650 5646 5642 5637 5632 5627 5621 5615
5758 5758 5758 5758 5758 5758 5758 5757 5756 5756 5756 5757 5757 5758 5757 5757 5757 5756 5755 5754 5752 5751 5750 5748 5746 5744 5742 5740 5738 5736 5734 5732 5730 5728 5725 5722 5719 5716 5713 5709 5706 5702 5698 5694 5690 5686 5682 5679 5675 5671 5668 5664 5661 5657 5653 5649 5645 5640 5636 5631 5625 5619 5613
5754 5754 5753 5753 5753 5753 5753 5753 5752 5752 5753 5754 5754 5754 5754 5754 5753 5752 5751 5750 5749 5748 5746 5744 5742 5740 5739 5737 5735 5733 5731 5729 5727 5725 5722 5719 5716 5713 5710 5706 5703 5699 5696 5692 5688 5684 5680 5677 5673 5669 5666 5663 5659 5655 5652 5648 5644 5639 5635 5630 5624 5618 5611
5750 5750 5750 5750 5750 5750 5748 5747 5748 5749 5750 5751 5751 5751 5751 5750 5750 5749 5748 5747 5746 5744 5743 5741 5739 5737 5736 5734 5732 5731 5729 5726 5724 5721 5719 5716 5713 5710 5707 5704 5700 5697 5693 5690 5686 5682 5679 5675 5671 5668 5665 5661 5657 5653 5650 5646 5642 5638 5633 5628 5623 5617 5611
5746 5747 5747 5746 5746 5747 5746 5745 5746 5747 5748 5748 5748 5748 5747 5747 5746 5746 5745 5744 5742 5741 5739 5737 5735 5734 5733 5731 5729 5728 5726 5723 5721 5718 5716 5713 5710 5707 5704 5701 5698 5694 5691 5688 5684 5681 5677 5674 5670 5667 5664 5660 5657 5653 5649 5645 5641 5637 5633 5628 5622 5617 5611
5743 5743 5743 5742 5742 5743 5743 5744 5744 5744 5744 5744 5744 5744 5744 5744 5743 5742 5741 5740 5739 5737 5735 5734 5732 5731 5730 5728 5726 5725 5723 5720 5718 5716 5713 5710 5707 5704 5701 5698 5695 5692 5689 5686 5682 5679 5676 5673 5670 5666 5663 5660 5657 5654 5650 5646 5642 5638 5633 5628 5623 5617 5612
5739 5739 5740 5740 5740 5740 5740 5740 5740 5740 5741 5741 5741 5741 5741 5740 5740 5739 5738 5736 5735 5734 5732 5731 5729 5728 5726 5725 5723 5721 5720 5717 5715 5713 5710 5708 5704 5701 5699 5696 5693 5690 5687 5684 5680 5677 5675 5672 5669 5666 5663 5660 5657 5653 5650 5647 5643 5638 5634 5629 5624 5619 5613
5735 5735 5736 5737 5737 5736 5737 5737 5737 5737 5737 5738 5738 5738 5737 5737 5736 5735 5734 5733 5732 5730 5729 5727 5726 5725 5723 5722 5720 5718 5717 5715 5713 5710 5708 5705 5702 5699 5696 5693 5690 5687 5685 5682 5679 5676 5674 5671 5669 5666 5663 5660 5657 5653 5650 5646 5642 5637 5633 5629 5624 5619 5614
5732 5732 5733 5733 5733 5733 5734 5734 5734 5734 5734 5734 5734 5734 5734 5733 5733 5732 5731 5730 5728 5727 5726 5724 5723 5721 5720 5718 5717 5715 5714 5712 5710 5707 5705 5702 5699 5696 5694 5691 5688 5685 5683 5680 5677 5675 5673 5670 5668 5665 5662 5659 5656 5653 5649 5645 5641 5637 5632 5628 5624 5620 5615
5729 5729 5730 5729 5729 5730 5731 5731 5731 5731 5731 5731 5731 5731 5730 5730 5729 5728 5727 5726 5725 5724 5722 5721 5719 5718 5717 5715 5714 5712 5711 5709 5707 5705 5702 5699 5697 5694 5691 5688 5685 5683 5681 5678 5676 5674 5672 5669 5667 5664 5662 5659 5655 5652 5648 5645 5641 5636 5632 5628 5624 5620 5616
5725 5726 5726 5726 5726 5726 5727 5727 5727 5727 5727 5727 5727 5727 5727 5726 5726 5725 5724 5723 5722 5720 5719 5717 5716 5715 5713 5712 5711 5709 5708 5706 5704 5702 5699 5696 5694 5692 5689 5686 5683 5681 5679 5677 5675 5673 5671 5668 5666 5664 5661 5658 5655 5651 5648 5644 5640 5636 5633 5629 5625 5621 5617
5722 5722 5722 5723 5723 5723 5723 5723 5723 5723 5723 5723 5723 5723 5723 5723 5722 5721 5720 5719 5718 5717 5716 5714 5713 5711 5710 5709 5708 5706 5705 5703 5701 5699 5696 5694 5692 5689 5687 5684 5681 5679 5677 5675 5674 5672 5670 5668 5665 5663 5660 5657 5654 5651 5647 5644 5640 5636 5633 5629 5625 5621 5617